Retour au catalogue

IRIDIUM 132

ActifCommunicationsPO
NORAD 42961·PAYLOAD·🇺🇸 United States

Lancé Oct 9, 2017 depuis Vandenberg Space Force Base

Loading…

Prochains Passages (prochaines 24 heures)

TLE

FraisSource: CelesTrak SupGP

Époque: Sep 14, 2026, 21:38 UTC

1 42961C 17061G   26257.90173611 -.00002490  00000+0 -89014-3 0  2575
2 42961  86.4027 347.7627 0002258  96.6052  44.6756 14.34219956    19

Suivez IRIDIUM 132 en temps réel avec AllMySat

Download on the App Store